Regional Weather Roundup
Issued by NWS State College, PA

Home | Current Version | Previous Version | Graphics & Text | Print | Product List | Glossary Off
Versions: 1 2 3 4 5 6 7 8 9 10 11 12 13 14 15 16 17 18 19 20 21 22 23 24 25 26 27 28 29 30 31 32 33 34 35 36 37 38 39 40 41 42 43 44 45 46 47 48 49 50

000
ASUS41 KCTP 161610
RWRCTP

REGIONAL WEATHER ROUNDUP
NATIONAL WEATHER SERVICE STATE COLLEGE PA
1200 PM EDT WED APR 16 2014

Note: "fair" indicates few or no clouds below 12,000 feet with no
significant weather and/or obstructions to visibility.

* = STATION THAT DOES NOT REPORT PRECIPITATION /E.G. RAIN...SNOW...ETC/
    THUNDER OR FOG.

PAZ002>004-007>009-013>016-020>023-029>032-161700-
WESTERN PENNSYLVANIA

CITY           SKY/WX    TMP DP  RH WIND       PRES   REMARKS
ERIE           SUNNY     33  11  39 VRB6      30.51R
MEADVILLE      NOT AVBL
FRANKLIN*      MOSUNNY   30  16  55 N5        30.46S
NEW CASTLE     FAIR      33  12  42 N9        30.48
BEAVER COUNTY  SUNNY     34  14  44 NE3       30.46S
BUTLER*        SUNNY     32  12  43 NE3       30.47F
PITTSBURGH INT PTSUNNY   33  11  39 CALM      30.45S
PITTSBURGH     SUNNY     36  13  38 N8        30.45S
INDIANA*       SUNNY     32  12  43 NE7       30.45F
LATROBE        PTSUNNY   32  12  43 NW7       30.47S
WASHINGTON CO* SUNNY     34  12  40 E7        30.48R
$$

PAZ004>006-010>012-017>019-024>028-033>037-041-042-045-046-049>053-161700-
CENTRAL PENNSYLVANIA

CITY           SKY/WX    TMP DP  RH WIND       PRES   REMARKS
BRADFORD       SUNNY     29  13  51 VRB7      30.40R
DUBOIS         SUNNY     32  12  43 VRB5      30.41S
CLEARFIELD     SUNNY     33  12  41 VRB5      30.43R
JOHNSTOWN      SUNNY     29  13  51 N9G16     30.37R
ALTOONA        SUNNY     33  11  39 N15       30.43R
STATE COLLEGE  MOSUNNY   34   5  29 N10       30.43S
WILLIAMSPORT   SUNNY     37  12  35 NW10G20   30.45S
SELINSGROVE    SUNNY     37  16  42 N15G22    30.47R
FT INDIANTOWN  NOT AVBL
CAPITAL CITY   SUNNY     38  12  34 NW12G21   30.47R
HARRISBURG     PTSUNNY   39  13  34 N14       30.46R
YORK           SUNNY     38  14  37 N8        30.46R
$$

PAZ038>040-043-044-047-048-054-055-060>062-067>071-161700-
EASTERN PENNSYLVANIA

CITY           SKY/WX    TMP DP  RH WIND       PRES   REMARKS
SCRANTON       MOSUNNY   32  18  56 NW18      30.41S
MOUNT POCONO   MOSUNNY   27  15  61 NW15G24   30.31F WCI  15
ALLENTOWN      SUNNY     38  19  46 N15G24    30.43R
QUAKERTOWN*    SUNNY     37  18  44 N12       30.43R
READING        SUNNY     38  16  40 N16G23    30.44R
LANCASTER      SUNNY     36  16  44 NW8G23    30.45R
COATESVILLE    NOT AVBL
POTTSTOWN      SUNNY     38  19  46 N7        30.45R
BLUE BELL      SUNNY     39  19  45 NW7G17    30.42R
DOYLESTOWN     SUNNY     39  19  44 N10G21    30.41R
WILLOW GROVE   NOT AVBL
NORTH PHILA    SUNNY     42  17  36 N13G22    30.44R
PHILADELPHIA   MOSUNNY   41  14  33 NW17      30.43R
$$



USA.gov is the U.S. government's official web portal to all federal, state and local government web resources and services.